[ ตารางข้อมูล ] [ Min-Max ] [ วันนี้4 ] [ วันนี้2 ] [ เทียบ3วัน A ] [ เทียบ4วัน B ]   

วันนี้2   [ ◀ ช่วงเก่ากว่า ] [ ช่วงที่ 223 ] [ ช่วงใหม่กว่า ▶ ] [ ล่าสุด ]    [ 3 ชั่วโมง ] [ 6 ชั่วโมง ] [ 12 ชั่วโมง ] [ 24 ชั่วโมง ]   วันนี้2

อุณภูมิตู้ Knockdown4529  ราย 3 ชั่วโมง  ที่วัดได้ ในช่วงวันเวลา 08/04/2026 (04:48) ถึง 08/04/2026 (07:48) 
ความชื้นในตู้ Knockdown4529  ราย 3 ชั่วโมง  ที่วัดได้ ในช่วงวันเวลา 08/04/2026 (04:48) ถึง 08/04/2026 (07:48) 

 
DS18B20SHTC3 
IDDate d/m/Y & Timedata1
สูง
data2
ต่ำ
data3
นอก
temp
pcb
hum
pcb
Time
 9881  08/04/2026 07:43:49  28.8  28.8  28.7  28.7  70.4  07:43 
 9880  08/04/2026 07:39:08  28.8  28.8  28.3  28.7  70.6  07:39 
 9879  08/04/2026 07:34:26  28.8  28.8  28.0  28.7  70.5  07:34 
 9878  08/04/2026 07:29:42  28.8  28.8  27.9  28.6  70.5  07:29 
 9877  08/04/2026 07:25:01  28.8  28.8  27.5  28.6  70.6  07:25 
 9876  08/04/2026 07:20:19  28.7  28.8  27.3  28.6  70.7  07:20 
 9875  08/04/2026 07:15:36  28.7  28.8  27.4  28.6  70.8  07:15 
 9874  08/04/2026 07:10:54  28.7  28.8  27.4  28.7  70.7  07:10 
 9873  08/04/2026 07:06:12  28.8  28.8  27.3  28.6  70.7  07:06 
 9872  08/04/2026 07:01:30  28.8  28.8  27.2  28.6  70.7  07:01 
 9871  08/04/2026 06:56:49  28.8  28.8  27.2  28.6  70.7  06:56 
 9870  08/04/2026 06:52:06  28.8  28.9  27.2  28.6  70.7  06:52 
 9869  08/04/2026 06:47:25  28.8  28.9  27.2  28.8  70.7  06:47 
 9868  08/04/2026 06:42:43  28.8  28.9  27.0  28.7  70.7  06:42 
 9867  08/04/2026 06:38:01  28.8  28.9  26.9  28.6  70.8  06:38 
 9866  08/04/2026 06:33:19  28.8  28.9  26.8  28.7  70.7  06:33 
 9865  08/04/2026 06:28:37  28.8  28.9  27.1  28.7  70.7  06:28 
 9864  08/04/2026 06:23:56  28.9  28.9  27.1  28.8  70.7  06:23 
 9863  08/04/2026 06:19:14  28.9  29.0  27.2  28.9  70.8  06:19 
 9862  08/04/2026 06:14:32  28.9  29.0  27.1  28.9  70.8  06:14 
 9861  08/04/2026 06:09:50  28.9  29.0  27.0  28.8  70.7  06:09 
 9860  08/04/2026 06:05:08  28.9  29.1  27.0  28.9  70.7  06:05 
 9859  08/04/2026 06:00:26  28.9  29.1  27.2  28.8  70.7  06:00 
 9858  08/04/2026 05:55:44  29.0  29.1  27.3  29.0  70.9  05:55 

Data every 5 minute.


ใช้เวลาประมวลผล 0.00186 วินาที